Location: Liscomb Game Sanctuary
(45.1633°N, 62.5575°W)
Time: 02:50:01
(UTC-03:00)

Okean 1 - Pass Details

Date: 22 February 2018
Orbit: 538 x 558 km, 82.5° (Epoch: 24 June)

Event Time Altitude Azimuth Distance (km) Brightness Sun altitude
Rises 18:31:24 0° 360° (N) 2,721 6.8 -8.4°
Reaches altitude 10° 18:33:46 10° 10° (N) 1,820 5.8 -8.8°
Maximum altitude 18:37:22 32° 75° (ENE) 950 4.0 -9.4°
Drops below altitude 10° 18:40:56 10° 139° (SE) 1,799 5.6 -10.1°
Sets 18:43:15 0° 150° (SSE) 2,684 6.6 -10.5°
